Location: Riverton
(43.0250°N, 108.3790°W)
Time: 14:14:49
(UTC-06:00)

JAS-2 - Visible Passes

Search period start: 25 August 2016 00:00
Search period end: 04 September 2016 00:00
Orbit: 800 x 1322 km, 98.6° (Epoch: 25 August)

Date Brightness Start Highest point End Pass type
(mag) Time Alt. Az. Time Alt. Az. Time Alt. Az.
25 Aug 11.5 00:14:21 10° NE 00:17:24 20° ENE 00:17:24 20° ENE visible
25 Aug 10.1 01:58:20 10° N 02:03:53 62° NNW 02:03:53 62° NNW visible
25 Aug 11.7 03:45:50 10° NNW 03:49:01 14° NW 03:50:21 13° WNW visible
26 Aug 10.6 01:03:21 10° NNE 01:08:05 42° ENE 01:08:05 42° ENE visible
26 Aug 10.8 02:48:56 10° N 02:54:34 33° WNW 02:54:34 33° WNW visible
27 Aug 11.6 00:09:27 10° NE 00:12:18 19° ENE 00:12:18 19° ENE visible
27 Aug 10.1 01:53:17 10° N 01:58:46 62° NNW 01:58:46 62° NNW visible
27 Aug 11.6 03:40:30 10° NNW 03:44:09 15° WNW 03:45:15 15° WNW visible
28 Aug 10.8 00:58:22 10° NNE 01:02:59 39° ENE 01:02:59 39° ENE visible
28 Aug 10.8 02:43:49 10° N 02:49:27 35° WNW 02:49:27 35° WNW visible
29 Aug 11.7 00:04:34 10° NE 00:07:11 17° ENE 00:07:11 17° ENE visible
29 Aug 10.2 01:48:15 10° N 01:53:40 60° N 01:53:40 60° N visible
29 Aug 11.6 03:35:13 10° NNW 03:39:17 17° WNW 03:40:09 17° WNW visible
30 Aug 10.9 00:53:24 10° NNE 00:57:52 37° ENE 00:57:52 37° ENE visible
30 Aug 10.7 02:38:44 10° N 02:44:21 38° NW 02:44:21 38° NW visible
30 Aug 11.8 23:59:44 10° NE 00:02:05 16° ENE 00:02:05 16° ENE visible
31 Aug 10.3 01:43:14 10° NNE 01:48:33 58° N 01:48:33 58° N visible
31 Aug 11.5 03:30:00 10° NNW 03:34:25 18° WNW 03:35:02 18° WNW visible
01 Sep 11.0 00:48:26 10° NNE 00:52:46 34° NE 00:52:46 34° NE visible
01 Sep 10.7 02:33:40 10° N 02:39:15 39° NW 02:39:15 39° NW visible
01 Sep 11.8 23:54:54 10° NE 23:56:59 15° ENE 23:56:59 15° ENE visible
02 Sep 10.4 01:38:13 10° NNE 01:43:27 55° NNE 01:43:27 55° NNE visible
02 Sep 11.5 03:24:49 10° NNW 03:29:34 20° WNW 03:29:56 20° WNW visible
03 Sep 11.1 00:43:30 10° NNE 00:47:40 32° NE 00:47:40 32° NE visible
03 Sep 10.7 02:28:37 10° N 02:34:08 41° NW 02:34:08 41° NW visible
03 Sep 11.9 23:50:07 10° NE 23:51:52 14° ENE 23:51:52 14° ENE visible
